Date,TemperatureHighF,TemperatureAvgF,TemperatureLowF,DewpointHighF,DewpointAvgF,DewpointLowF,HumidityHigh,HumidityAvg,HumidityLow,PressureMaxIn,PressureMinIn,WindSpeedMaxMPH,WindSpeedAvgMPH,GustSpeedMaxMPH,PrecipitationSumIn
2013-1-1,37,34,31,36,32,28,98,91,83,30.37,30.11,6,2,12,0.01
2013-1-2,41,32,25,30,27,23,95,82,62,30.41,30.30,4,1,10,0.00
2013-1-3,46,32,21,32,25,20,96,77,45,30.56,30.39,6,1,13,0.00
2013-1-4,48,38,28,33,29,25,91,71,52,30.59,30.40,3,0,9,0.00
2013-1-5,53,41,29,38,34,27,95,78,50,30.41,30.23,5,1,13,0.00
2013-1-6,55,39,27,30,25,22,95,63,29,30.48,30.35,7,2,12,0.00
2013-1-7,54,36,20,34,27,18,94,73,41,30.41,30.16,4,0,9,0.00
2013-1-8,49,44,37,46,39,32,97,84,69,30.19,30.04,4,1,9,0.22
2013-1-9,54,50,47,53,50,46,98,97,96,30.27,30.06,12,5,20,0.70
2013-1-10,59,53,47,56,51,45,99,94,82,30.09,29.88,7,2,17,0.45
2013-1-11,70,57,45,56,49,43,94,77,50,29.94,29.75,9,3,18,0.01
2013-1-12,61,46,31,59,39,24,96,78,44,30.05,29.75,12,5,21,0.08
2013-1-13,36,30,24,24,20,16,78,65,49,30.42,30.03,11,6,20,0.02
2013-1-14,42,31,23,19,16,14,76,56,33,30.49,30.32,8,4,18,0.00
2013-1-15,36,30,25,25,20,17,78,68,54,30.35,30.26,7,3,12,0.00
2013-1-16,48,32,16,26,19,13,90,63,30,30.35,30.22,4,1,11,0.00
2013-1-17,57,41,27,34,29,22,86,65,38,30.56,30.31,8,2,17,0.00
2013-1-18,59,42,25,36,30,23,95,67,38,30.57,30.29,6,1,14,0.00
2013-1-19,66,50,37,41,37,33,90,65,36,30.29,30.14,5,1,10,0.00
2013-1-20,68,47,30,48,38,29,98,75,40,30.26,30.11,3,0,9,0.00
2013-1-21,50,41,30,40,22,15,90,49,31,30.40,30.20,9,4,17,0.00
2013-1-22,61,43,25,43,31,19,86,63,44,30.37,30.22,3,1,8,0.00
2013-1-23,74,54,37,54,46,35,94,77,47,30.28,30.13,5,1,10,0.00
2013-1-24,59,50,42,53,48,40,99,91,74,30.21,30.10,4,1,8,0.00
2013-1-25,52,42,35,44,36,31,96,79,59,30.28,30.10,6,3,12,0.00
2013-1-26,48,43,38,45,41,34,98,93,81,30.28,30.13,3,1,10,0.01
2013-1-27,69,56,45,61,53,44,100,91,72,30.14,29.91,7,2,18,0.01
2013-1-28,75,69,64,66,63,61,94,83,69,29.99,29.78,9,4,17,0.01
2013-1-29,74,64,52,66,56,31,96,79,44,29.79,29.46,10,4,21,0.28
2013-1-30,52,42,28,42,29,22,86,63,37,30.15,29.64,10,4,29,0.06
2013-1-31,65,50,24,31,27,20,91,44,23,30.43,30.11,12,4,24,0.00
2013-2-1,55,38,23,35,23,13,79,57,38,30.48,30.21,7,2,18,0.00
2013-2-2,64,46,33,37,32,28,84,61,32,30.37,30.19,7,2,14,0.00
2013-2-3,64,48,30,37,32,28,93,59,30,30.37,29.99,4,1,9,0.00
2013-2-4,71,61,53,52,44,31,89,56,37,30.00,29.80,5,2,12,0.00
2013-2-5,61,53,49,57,52,48,99,95,85,30.06,29.92,3,1,6,0.00
2013-2-6,62,55,51,62,54,51,100,97,92,30.06,29.88,6,2,14,0.01
2013-2-7,74,59,48,60,54,40,99,84,45,30.16,29.83,10,4,24,0.02
2013-2-8,59,48,36,41,34,28,83,61,31,30.33,30.15,8,3,14,0.01
2013-2-9,52,45,39,52,41,33,99,87,74,30.18,29.75,6,2,17,0.06
2013-2-10,63,54,41,57,36,26,99,57,24,30.07,29.71,7,2,17,0.46
2013-2-11,59,48,39,36,30,28,67,50,33,30.24,30.07,8,3,14,0.01
2013-2-12,45,42,37,42,39,33,96,90,67,30.13,29.93,9,3,18,0.85
2013-2-13,57,43,34,40,34,28,94,75,33,30.18,30.04,5,1,12,0.03
2013-2-14,67,47,28,39,32,27,97,63,26,30.22,30.04,10,1,19,0.00
2013-2-15,51,42,29,37,26,18,74,52,32,30.43,30.21,10,5,23,0.00
2013-2-16,53,40,30,31,27,21,89,61,32,30.48,30.19,4,1,9,0.00
2013-2-17,71,54,35,40,33,29,82,50,23,30.19,29.85,9,3,20,0.00
2013-2-18,68,57,43,54,42,28,84,58,31,30.17,29.72,9,5,22,0.00
2013-2-19,59,46,34,29,26,23,78,49,27,30.39,30.17,5,2,14,0.00
2013-2-20,47,39,36,38,34,26,95,84,45,30.27,29.91,10,5,21,0.64
2013-2-21,56,43,34,44,36,28,96,79,53,30.03,29.69,9,4,18,0.33
2013-2-22,45,34,25,28,22,18,84,63,45,30.23,30.02,7,3,14,0.02
2013-2-23,52,37,25,32,25,21,83,65,42,30.20,29.98,5,1,10,0.00
2013-2-24,66,49,31,43,36,27,89,63,39,29.98,29.68,7,3,17,0.00
2013-2-25,53,44,37,43,39,33,94,84,59,29.73,29.47,10,4,28,0.16
2013-2-26,54,43,37,34,32,28,86,66,39,29.96,29.67,10,5,25,0.02
2013-2-27,53,41,35,31,28,21,82,62,28,30.29,29.95,8,4,21,0.00
2013-2-28,55,41,30,30,27,24,87,61,32,30.33,30.24,9,3,22,0.00
2013-3-1,49,38,29,32,28,25,88,69,50,30.38,30.27,7,2,16,0.00
2013-3-2,53,38,24,29,25,20,88,62,37,30.49,30.28,6,2,12,0.00
2013-3-3,70,52,32,38,32,26,84,51,29,30.28,29.72,8,3,18,0.00
2013-3-4,79,64,47,45,41,34,75,45,26,29.90,29.59,15,5,28,0.00
2013-3-5,53,45,38,40,25,18,78,47,27,30.43,29.89,15,6,34,0.00
2013-3-6,58,43,27,25,22,16,77,46,20,30.53,30.23,6,1,10,0.00
2013-3-7,71,54,37,34,28,24,60,40,20,30.26,30.09,8,2,17,0.00
2013-3-8,61,56,52,55,47,34,89,73,45,30.18,29.96,5,3,14,0.00
2013-3-9,66,59,55,63,57,54,99,93,82,29.96,29.64,6,2,15,1.29
2013-3-10,55,46,37,55,38,29,99,73,58,30.13,29.71,9,4,20,1.23
2013-3-11,59,42,28,32,26,17,93,58,24,30.16,30.04,5,2,12,0.01
2013-3-12,63,50,36,39,31,24,77,51,30,30.37,30.07,8,2,16,0.00
2013-3-13,65,51,33,37,32,26,84,51,28,30.51,30.35,4,1,8,0.00
2013-3-14,78,59,40,47,41,34,82,54,29,30.36,30.15,7,2,13,0.00
2013-3-15,83,67,52,52,48,45,79,53,29,30.16,29.83,7,3,16,0.00
2013-3-16,81,69,57,58,52,44,74,55,38,29.83,29.65,7,3,15,0.00
2013-3-17,65,54,47,56,45,39,84,72,60,29.81,29.68,9,2,13,0.00
2013-3-18,65,53,44,45,41,36,91,67,35,30.06,29.67,9,4,16,0.00
2013-3-19,61,52,38,39,35,27,86,56,29,30.20,30.01,8,2,15,0.00
2013-3-20,64,53,40,38,31,26,66,45,25,30.37,30.06,6,2,12,0.00
2013-3-21,66,52,47,47,38,32,80,58,46,30.07,29.58,8,4,19,0.03
2013-3-22,48,45,40,42,40,37,91,83,70,29.92,29.64,10,5,20,0.01
2013-3-23,49,45,43,46,44,39,96,93,88,29.91,29.71,8,2,22,0.09
2013-3-24,49,41,35,41,27,18,91,60,31,30.26,29.91,12,6,24,0.01
2013-3-25,49,38,26,24,18,14,77,48,26,30.47,30.25,8,3,21,0.00
2013-3-26,57,39,21,29,21,16,87,54,26,30.56,30.33,3,1,10,0.00
2013-3-27,69,53,38,42,33,24,62,47,32,30.34,30.09,11,4,20,0.00
2013-3-28,70,60,48,56,50,42,86,70,57,30.22,30.07,7,3,18,0.00
2013-3-29,76,66,59,60,57,54,90,75,54,30.15,30.03,6,2,13,0.03
2013-3-30,79,67,55,64,58,-100,96,79,56,30.03,29.86,12,2,23,0.18
2013-3-31,72,63,51,61,53,45,98,71,39,30.01,29.80,13,3,34,0.44
2013-4-1,79,62,42,50,45,40,95,60,28,30.11,29.97,7,1,19,0.31
2013-4-2,58,48,42,48,45,41,96,89,64,30.13,30.00,11,6,21,0.45
2013-4-3,43,42,40,42,40,38,97,93,82,30.23,30.07,9,4,15,0.81
2013-4-4,53,44,39,42,40,37,96,86,66,30.28,30.17,5,2,11,0.18
2013-4-5,67,52,33,49,42,32,97,73,46,30.29,30.02,4,1,10,0.01
2013-4-6,76,64,54,58,52,48,82,66,45,30.03,29.82,7,3,21,0.00
2013-4-7,70,65,57,62,59,55,93,83,75,29.87,29.70,6,3,17,0.00
2013-4-8,77,70,64,65,62,59,87,77,64,29.72,29.62,6,4,19,0.00
2013-4-9,80,72,52,68,64,43,86,75,63,29.77,29.60,8,4,18,0.00
2013-4-10,52,40,35,44,36,32,93,86,72,30.04,29.74,9,4,22,0.47
2013-4-11,60,45,34,39,33,28,88,64,38,30.06,29.85,4,1,12,0.01
2013-4-12,71,54,36,45,40,34,96,64,35,30.07,29.88,6,2,12,0.00
2013-4-13,78,64,51,51,45,41,70,53,34,30.03,29.76,6,2,14,0.00
2013-4-14,81,68,56,64,56,47,85,65,50,29.78,29.50,7,3,16,0.00
2013-4-15,87,76,65,70,66,63,94,73,53,29.71,29.54,6,3,18,0.00
2013-4-16,84,75,70,69,66,65,85,74,58,29.90,29.70,4,2,11,0.00
2013-4-17,83,76,71,70,68,66,93,77,59,29.85,29.53,7,3,18,0.00
2013-4-18,76,50,40,70,41,31,97,73,53,30.20,29.53,11,5,27,0.41
2013-4-19,64,48,35,37,30,24,83,54,26,30.31,30.15,6,1,17,0.03
2013-4-20,71,57,40,41,35,30,78,48,23,30.20,30.03,7,2,18,0.00
2013-4-21,70,60,49,51,45,39,75,59,46,30.22,30.09,5,2,14,0.00
2013-4-22,77,64,50,60,53,45,84,66,50,30.14,29.81,7,2,16,0.00
2013-4-23,66,49,39,59,45,34,94,85,75,30.26,29.79,6,3,18,0.03
2013-4-24,61,47,33,35,30,28,84,57,30,30.40,30.25,6,3,17,0.01
2013-4-25,72,54,32,47,37,30,94,57,25,30.40,30.17,3,1,10,0.00
2013-4-26,72,64,57,65,55,45,92,73,55,30.21,29.95,3,1,11,0.01
2013-4-27,71,64,56,66,57,52,94,78,57,30.13,29.95,7,2,15,0.01
2013-4-28,84,66,48,62,54,47,97,71,36,30.06,29.84,2,0,7,0.00
2013-4-29,87,74,59,66,60,50,98,67,33,29.88,29.75,5,1,14,0.00
2013-4-30,84,72,59,63,60,56,91,68,45,29.81,29.72,4,1,13,0.00
2013-5-1,84,71,63,68,63,55,95,77,48,30.03,29.78,7,1,16,0.00
2013-5-2,68,46,40,60,40,34,91,80,72,30.41,30.03,12,6,21,0.04
2013-5-3,64,49,33,37,32,26,91,57,25,30.41,30.06,8,2,20,0.01
2013-5-4,67,52,34,40,33,22,91,55,19,30.09,29.95,9,3,22,0.00
2013-5-5,65,55,45,48,43,38,88,66,52,30.20,30.09,7,2,14,0.00
2013-5-6,77,61,42,54,49,41,97,69,40,30.16,30.01,5,1,11,0.00
2013-5-7,84,70,51,56,53,49,94,59,32,30.10,29.92,4,1,10,0.00
2013-5-8,87,72,60,61,55,45,81,57,24,29.97,29.83,4,1,17,0.00
2013-5-9,76,69,62,67,62,57,94,77,63,29.96,29.84,4,0,10,0.00
2013-5-10,80,68,62,64,58,-100,99,76,48,30.08,29.91,6,2,15,0.01
2013-5-11,82,67,51,57,52,-100,97,64,32,30.22,30.07,7,2,16,0.14
2013-5-12,79,66,52,53,42,35,71,44,21,30.28,30.12,4,1,11,0.14
2013-5-13,92,74,55,52,46,39,61,39,22,30.20,30.03,4,1,11,0.00
2013-5-14,89,77,61,59,54,47,69,46,28,30.10,29.93,5,1,13,0.00
2013-5-15,79,70,61,70,64,56,98,82,53,29.98,29.71,3,1,15,1.23
2013-5-16,68,60,62,66,43,-100,98,96,92,29.84,29.75,7,1,12,0.45
2013-5-17,87,72,64,76,65,-100,100,89,68,29.86,29.77,4,2,12,0.01
2013-5-18,91,81,71,75,72,70,98,77,54,29.85,29.69,4,1,16,0.01
2013-5-19,88,81,73,73,69,65,79,70,60,29.77,29.57,6,3,18,0.00
2013-5-20,88,76,63,73,66,-100,98,77,60,29.74,29.63,11,2,16,0.73
2013-5-21,70,65,56,68,62,55,99,92,84,29.87,29.72,6,2,15,1.06
2013-5-22,86,68,50,63,58,50,99,73,39,29.96,29.85,1,0,6,0.01
2013-5-23,86,72,60,70,64,58,98,78,48,30.08,29.90,11,2,25,0.48
2013-5-24,83,74,65,73,68,62,94,84,71,30.15,30.03,4,2,12,0.03
2013-5-25,81,69,65,72,67,63,97,91,73,30.18,30.00,5,1,15,0.59
2013-5-26,84,75,66,73,70,65,99,85,67,30.07,29.89,4,1,12,0.46
2013-5-27,75,73,71,72,70,68,92,89,82,29.94,29.87,3,1,10,0.01
2013-5-28,81,79,73,70,68,66,85,70,64,29.84,29.67,6,3,16,0.00
2013-5-29,80,74,63,73,69,60,97,85,74,29.80,29.65,8,2,25,2.94
2013-5-30,88,77,67,74,71,65,97,81,62,29.75,29.62,6,2,19,2.92
2013-5-31,89,82,75,76,73,71,89,76,64,29.78,29.58,5,2,15,0.01
2013-6-1,84,76,66,74,65,-100,96,73,40,29.99,29.63,8,3,16,1.12
2013-6-2,79,71,60,59,56,49,90,61,41,30.11,29.96,7,3,15,0.23
2013-6-3,86,72,58,66,62,55,94,71,49,30.01,29.83,3,1,7,0.00
2013-6-4,88,76,66,73,68,63,99,78,57,30.03,29.79,6,2,17,1.28
2013-6-5,87,77,68,74,70,67,99,81,62,29.98,29.79,10,2,19,0.85
2013-6-6,77,71,63,70,66,61,97,83,67,29.96,29.84,5,2,14,1.20
2013-6-7,83,70,57,63,59,54,99,72,41,30.02,29.90,5,1,10,0.02
2013-6-8,85,74,60,67,62,58,95,69,46,29.95,29.78,3,1,11,0.00
2013-6-9,88,77,67,69,66,63,96,73,46,29.93,29.81,5,1,18,0.17
2013-6-10,95,81,68,73,70,66,93,70,45,29.94,29.85,3,1,7,0.05
2013-6-11,93,83,72,75,71,65,87,68,52,29.98,29.87,3,1,10,0.00
2013-6-12,93,83,74,75,72,69,84,69,50,30.00,29.89,3,1,9,0.00
2013-6-13,97,85,72,76,73,69,90,69,47,30.02,29.86,2,0,6,0.00
2013-6-14,95,84,72,76,73,71,96,71,49,29.97,29.87,3,0,8,0.00
2013-6-15,88,82,75,77,74,70,95,80,63,29.98,29.87,3,0,8,0.00
2013-6-16,95,83,70,76,72,68,95,73,51,29.99,29.84,2,0,7,0.00
2013-6-17,87,77,66,74,70,65,99,79,60,29.99,29.84,10,2,22,1.82
2013-6-18,87,77,68,71,68,66,95,76,51,30.01,29.91,4,1,11,0.12
2013-6-19,86,78,69,75,72,68,98,84,68,30.01,29.86,3,1,8,0.00
2013-6-20,92,81,75,77,74,70,93,79,54,30.00,29.90,3,1,8,0.00
2013-6-22,92,89,82,72,71,69,72,56,49,29.99,29.84,4,2,11,0.00
2013-6-23,92,84,75,73,71,67,85,66,46,29.94,29.83,4,1,13,0.00
2013-6-24,92,83,74,73,71,68,83,67,53,29.98,29.84,4,1,12,0.00
2013-6-25,93,85,77,75,71,67,78,65,54,29.92,29.77,5,2,15,0.00
2013-6-26,95,86,77,77,72,66,78,64,55,29.90,29.78,3,1,15,0.00
2013-6-27,101,87,74,77,74,70,90,67,41,29.97,29.82,4,0,11,0.00
2013-6-28,98,88,79,74,68,63,76,54,34,29.96,29.83,6,2,17,0.00
2013-6-29,94,84,74,70,64,60,84,55,34,29.92,29.80,6,2,13,0.00
2013-6-30,87,80,70,67,59,56,80,50,37,29.97,29.83,7,3,16,0.00
2013-7-1,86,75,65,62,56,50,73,55,33,30.06,29.96,8,3,16,0.00
2013-7-2,87,75,59,59,54,50,84,52,29,30.11,30.00,5,1,13,0.00
2013-7-3,90,75,59,60,57,54,92,58,30,30.08,29.95,3,0,6,0.00
2013-7-4,93,79,65,68,61,57,80,57,33,30.01,29.88,5,1,11,0.00
2013-7-5,93,81,70,69,65,61,83,62,36,29.98,29.85,3,1,9,0.02
2013-7-6,94,83,73,70,65,62,69,57,39,29.93,29.83,3,1,11,0.02
2013-7-7,94,84,72,72,68,65,80,59,39,29.98,29.86,3,1,11,0.00
2013-7-8,95,84,74,76,71,66,89,69,47,30.06,29.95,5,0,10,0.00
2013-7-9,98,87,74,74,69,64,76,58,40,30.06,29.92,3,1,9,0.00
2013-7-10,103,88,76,73,67,-100,75,55,35,30.01,29.86,2,0,7,0.00
2013-7-11,104,89,76,73,69,66,78,56,30,29.93,29.81,6,0,14,0.00
2013-7-12,98,86,74,74,72,70,89,64,42,29.96,29.87,4,1,9,0.00
2013-7-13,98,87,76,72,69,66,84,58,39,29.98,29.85,4,1,10,0.00
2013-7-14,82,72,64,69,67,61,96,84,54,30.02,29.88,6,1,12,0.67
2013-7-15,75,68,63,69,66,62,98,94,81,30.12,29.99,5,1,8,1.48
2013-7-16,87,76,69,74,71,68,98,86,62,30.20,30.11,6,1,10,0.44
2013-7-17,90,80,72,77,73,70,97,81,55,30.24,30.14,5,1,13,0.26
2013-7-18,95,82,71,75,72,70,99,74,46,30.19,29.99,1,0,6,0.24
2013-7-19,97,83,72,75,72,70,97,74,44,30.04,29.89,2,0,8,0.00
2013-7-20,96,82,72,75,71,-100,96,73,45,29.96,29.82,2,0,8,0.00
2013-7-21,96,84,72,77,73,70,95,70,47,29.89,29.79,1,0,5,0.00
2013-7-22,96,86,76,78,74,71,91,70,50,29.91,29.80,3,1,7,0.00
2013-7-23,97,87,78,79,74,71,82,66,50,29.92,29.75,2,0,6,0.00
2013-7-24,92,79,67,74,71,65,97,77,52,30.08,29.79,16,2,34,1.00
2013-7-25,88,80,71,74,72,69,96,77,60,30.06,29.96,2,0,6,0.08
2013-7-26,91,79,72,78,73,70,98,83,62,30.00,29.86,7,2,15,1.13
2013-7-27,88,77,70,71,69,67,93,78,56,30.04,29.92,5,2,9,0.16
2013-7-28,89,79,69,72,69,67,95,74,51,29.99,29.88,4,1,12,0.00
2013-7-29,88,79,75,78,73,69,89,82,68,29.98,29.92,2,0,9,0.03
2013-7-30,95,88,75,78,76,72,89,69,58,30.00,29.91,2,1,9,0.04
2013-7-31,95,86,74,78,75,72,95,72,56,30.03,29.93,4,1,9,0.01
2013-8-1,95,87,78,77,74,73,85,68,51,30.02,29.89,5,2,11,0.00
2013-8-2,102,89,78,76,72,69,84,60,35,29.92,29.80,2,1,8,0.00
2013-8-3,99,88,77,75,71,68,76,59,40,29.98,29.85,3,1,8,0.00
2013-8-4,99,87,74,75,71,68,88,61,40,30.03,29.89,2,0,8,0.00
2013-8-5,102,88,75,76,71,69,85,60,36,29.95,29.78,3,1,10,0.00
2013-8-6,103,90,77,74,69,65,74,52,30,29.85,29.72,2,1,10,0.00
2013-8-7,105,91,80,75,71,66,73,54,31,29.82,29.69,3,1,8,0.00
2013-8-8,100,88,76,74,71,68,88,60,37,29.87,29.74,4,1,8,0.03
2013-8-9,99,83,75,76,73,68,91,74,43,29.98,29.82,6,2,14,0.09
2013-8-10,91,81,74,74,71,68,91,72,47,30.09,29.98,6,3,13,0.09
2013-8-11,99,85,70,73,70,68,95,66,38,30.07,29.94,5,1,11,0.00
2013-8-12,100,85,75,74,72,70,94,68,39,30.00,29.88,6,1,15,1.11
2013-8-13,89,79,75,75,71,-100,97,81,53,30.02,29.90,6,2,12,1.32
2013-8-14,88,78,70,73,68,-100,93,77,54,30.06,29.95,6,3,12,0.01
2013-8-15,88,70,68,69,51,-100,83,66,52,30.08,29.93,3,1,9,0.00
2013-8-16,85,73,65,69,62,-100,97,75,52,30.09,29.96,12,2,23,0.05
2013-8-17,85,74,63,66,61,-100,94,67,47,30.12,30.00,4,1,11,0.02
2013-8-18,88,77,65,68,64,61,86,65,43,30.12,29.99,3,1,9,0.00
2013-8-19,93,75,67,70,52,-100,86,63,38,30.08,29.93,4,1,9,0.00
2013-8-20,97,89,77,69,55,-100,70,42,32,30.03,29.92,4,1,9,0.00
2013-8-21,97,92,75,69,64,60,75,42,31,30.06,29.95,2,1,9,0.00
2013-8-22,98,93,81,72,69,66,69,47,37,30.05,29.89,2,0,7,0.00
2013-8-23,99,94,77,74,71,66,81,48,34,30.00,29.89,7,1,15,0.00
2013-8-24,97,90,82,70,61,-100,53,41,32,30.03,29.95,5,1,12,0.06
2013-8-25,97,85,73,71,66,63,83,55,33,30.14,30.03,5,1,14,0.06
2013-8-26,94,83,72,70,65,60,81,56,34,30.16,30.03,4,1,12,0.00
2013-8-27,87,76,69,71,67,60,89,73,55,30.11,30.04,2,0,8,0.00
2013-8-28,97,91,80,69,66,64,65,44,34,30.07,29.96,2,0,7,0.00
2013-8-29,102,86,69,68,65,60,89,54,27,30.05,29.92,3,0,7,0.00
2013-8-30,103,87,71,68,64,59,82,51,25,29.98,29.83,2,0,7,0.00
2013-8-31,106,88,73,69,61,-100,76,46,21,29.88,29.75,2,0,6,0.00
2013-9-1,106,88,72,71,65,55,78,51,21,29.86,29.75,7,1,15,0.00
2013-9-2,96,85,76,74,68,59,83,60,39,29.97,29.84,6,2,14,0.00
2013-9-3,95,82,69,64,60,54,73,48,26,30.01,29.90,5,2,15,0.00
2013-9-4,97,84,72,69,63,60,74,51,32,30.06,29.96,5,1,11,0.00
2013-9-5,98,84,72,68,62,59,69,50,29,30.11,29.99,4,1,10,0.00
2013-9-6,100,84,71,66,61,58,68,48,26,30.08,29.92,4,1,9,0.00
2013-9-7,100,84,72,67,61,-100,72,49,28,30.00,29.88,3,0,9,0.00
2013-9-8,98,84,68,69,63,57,88,53,27,29.97,29.85,4,0,13,0.00
2013-9-9,96,83,68,69,62,57,84,52,28,29.98,29.88,3,0,12,0.00
2013-9-10,93,83,70,69,62,55,83,53,31,30.09,29.94,3,0,19,0.00
2013-9-11,95,80,66,68,62,55,77,55,35,30.13,29.99,2,0,7,0.00
2013-9-12,95,82,70,69,66,63,86,60,35,30.07,29.94,6,1,13,0.00
2013-9-13,93,82,73,69,67,62,84,63,36,29.98,29.85,7,2,18,0.00
2013-9-14,89,78,69,68,59,-100,84,55,37,30.00,29.88,6,2,13,0.00
2013-9-15,95,80,68,68,61,54,66,53,38,30.01,29.93,1,0,7,0.00
2013-9-16,93,83,70,67,64,61,81,55,37,30.10,29.96,5,1,10,0.00
2013-9-17,95,82,73,69,64,59,72,56,33,30.06,29.93,3,0,9,0.00
2013-9-18,81,77,76,69,67,66,76,70,60,29.97,29.90,0,0,3,0.00
2013-9-19,92,81,71,70,66,63,89,62,40,29.96,29.85,3,0,11,0.01
2013-9-20,73,70,63,69,66,57,96,90,78,29.98,29.89,6,2,13,0.26
2013-9-21,82,68,54,57,46,-100,90,55,20,30.03,29.90,6,2,14,0.01
2013-9-22,85,67,48,53,49,43,97,59,26,29.96,29.81,3,0,8,0.00
2013-9-23,85,68,51,55,51,49,93,58,30,29.88,29.74,2,0,12,0.00
2013-9-24,90,72,56,59,48,38,90,52,18,29.96,29.85,5,1,15,0.00
2013-9-25,94,73,51,54,48,44,87,49,19,29.92,29.76,2,0,7,0.00
2013-9-26,95,78,64,59,54,50,66,46,27,29.87,29.78,3,1,11,0.00
2013-9-27,89,78,65,69,63,58,81,62,45,29.91,29.80,5,1,12,0.00
2013-9-28,79,70,63,73,63,-100,96,82,66,30.08,29.82,4,1,25,0.81
2013-9-29,80,65,52,57,50,42,95,64,28,30.09,29.93,7,1,13,0.07
2013-9-30,88,68,48,58,51,47,97,62,25,29.95,29.80,2,0,9,0.07
2013-10-1,82,75,72,65,62,60,78,64,48,29.92,29.87,0,0,3,0.00
2013-10-2,88,78,70,72,69,65,96,77,48,29.96,29.83,4,1,12,0.00
2013-10-4,87,82,77,67,66,65,70,59,49,29.83,29.78,5,2,13,0.00
2013-10-5,77,58,48,67,50,39,95,74,56,30.12,29.83,11,3,22,0.54
2013-10-6,74,56,42,46,36,23,97,58,15,30.17,30.06,5,1,13,0.05
2013-10-7,79,58,41,45,38,30,94,57,17,30.21,30.10,4,1,8,0.00
2013-10-8,79,62,43,51,46,41,93,62,28,30.15,30.00,5,1,11,0.00
2013-10-9,83,66,51,55,51,48,91,62,32,30.08,29.97,4,1,12,0.00
2013-10-10,83,69,56,63,57,53,91,67,41,30.05,29.85,4,1,16,0.00
2013-10-11,86,74,64,68,65,58,91,74,53,29.89,29.78,5,2,14,0.00
2013-10-12,87,75,67,73,66,-100,97,77,45,30.09,29.85,7,2,22,0.44
2013-10-13,75,69,65,68,65,62,95,88,77,30.22,30.09,7,2,13,0.00
2013-10-14,70,68,65,69,66,63,98,94,83,30.16,29.89,3,1,12,3.01
2013-10-15,70,60,52,69,58,49,97,93,85,30.12,29.89,9,2,17,0.66
2013-10-16,64,55,48,51,44,41,97,71,46,30.18,30.07,6,2,15,0.22
2013-10-17,73,54,38,50,44,37,98,73,40,30.16,29.99,1,0,10,0.00
2013-10-18,68,55,44,56,49,40,93,82,52,30.19,29.93,10,2,22,0.01
2013-10-19,67,48,34,43,36,-100,96,71,31,30.26,30.10,5,1,15,0.01
2013-10-20,71,54,38,46,41,36,96,66,32,30.11,29.88,4,1,12,0.00
2013-10-21,60,53,45,51,46,39,92,78,63,30.17,29.92,8,1,14,0.00
2013-10-22,76,54,35,51,42,34,98,70,33,30.21,30.03,3,0,13,0.00
2013-10-23,81,60,43,53,47,42,96,68,29,30.17,30.02,5,1,10,0.00
2013-10-24,67,57,48,48,43,36,87,61,37,30.35,30.05,8,3,18,0.00
2013-10-25,64,55,42,43,40,34,77,57,43,30.47,30.28,6,2,15,0.00
2013-10-26,61,54,50,59,50,-100,97,87,74,30.28,30.08,7,1,12,0.78
2013-10-27,65,58,53,59,56,52,98,93,78,30.16,30.02,1,0,4,0.01
2013-10-28,68,58,49,64,56,-100,99,95,85,30.12,30.02,3,1,10,0.01
2013-10-29,76,70,66,69,66,64,94,88,78,30.06,29.95,4,2,14,0.01
2013-10-30,70,68,64,68,66,63,97,93,88,29.98,29.76,4,2,14,0.11
2013-10-31,68,63,48,65,54,41,99,77,40,29.87,29.65,7,2,21,0.03
2013-11-1,74,57,41,50,43,39,98,65,29,30.13,29.85,5,1,15,0.01
2013-11-2,65,52,41,41,34,-100,87,56,27,30.35,30.14,7,2,15,0.00
2013-11-3,65,50,36,45,38,34,96,67,37,30.25,30.00,5,1,18,0.00
2013-11-4,62,57,54,56,51,45,97,81,67,30.10,29.99,5,2,14,0.33
2013-11-5,66,61,57,65,60,56,98,97,93,30.09,29.94,3,1,11,1.05
2013-11-6,66,48,35,65,42,34,97,80,48,30.42,29.95,8,3,20,1.03
2013-11-7,63,46,31,42,36,31,98,75,37,30.55,30.42,2,0,7,0.03
2013-11-8,65,51,35,44,38,32,98,67,31,30.42,30.15,5,1,15,0.00
2013-11-9,68,57,50,52,45,-100,76,66,52,30.26,30.12,4,1,13,0.00
2013-11-10,64,55,47,51,48,45,96,77,58,30.38,30.26,2,0,6,0.00
2013-11-11,72,59,44,57,52,43,97,80,55,30.34,30.18,7,0,15,0.00
2013-11-12,57,40,29,52,25,14,87,57,30,30.76,30.37,13,6,27,0.00
2013-11-13,51,36,19,26,22,16,94,59,35,30.77,30.43,2,0,10,0.00
2013-11-14,52,43,28,39,29,24,87,61,38,30.42,30.03,4,1,11,0.00
2013-11-15,68,56,44,54,47,39,95,74,47,30.04,29.83,3,1,9,0.00
2013-11-16,75,65,57,64,58,-100,92,80,61,29.84,29.61,6,3,17,0.01
2013-11-17,80,70,60,65,50,26,92,55,24,30.06,29.65,7,3,16,0.01
2013-11-18,68,58,51,35,28,19,46,32,22,30.24,30.06,7,3,15,0.00
2013-11-19,64,56,52,37,32,27,54,40,26,30.21,30.02,5,2,15,0.00
2013-11-20,61,54,48,51,39,31,72,56,46,30.04,29.89,4,2,16,0.00
2013-11-21,66,55,34,65,52,32,96,91,72,30.33,29.96,12,3,25,0.57
2013-11-22,33,30,29,32,28,26,95,91,87,30.57,30.33,11,6,22,0.08
2013-11-23,38,33,30,31,26,-100,95,78,57,30.66,30.56,11,4,22,0.13
2013-11-24,32,29,28,24,18,14,74,63,56,30.71,30.65,8,4,16,0.12
2013-11-25,33,32,29,31,28,-100,96,92,91,30.35,30.26,3,-15,7,0.05
2013-11-26,48,39,33,33,29,19,92,69,40,30.45,30.25,11,4,22,0.01
2013-11-27,42,31,22,21,14,10,87,51,26,30.54,30.40,8,3,17,0.00
2013-11-28,54,37,22,28,23,17,86,60,34,30.51,30.39,3,0,7,0.00
2013-11-29,58,41,25,34,29,22,91,66,33,30.55,30.37,3,1,11,0.00
2013-11-30,65,50,38,50,42,-100,92,77,57,30.38,30.15,4,1,13,0.00
2013-12-1,62,52,40,54,49,39,98,88,70,30.16,29.93,3,0,8,0.00
2013-12-2,63,46,37,51,43,36,98,91,60,29.93,29.71,2,0,6,0.00
2013-12-3,67,51,44,50,45,42,99,83,42,29.72,29.53,3,0,7,0.01
2013-12-4,55,45,34,43,37,24,96,74,53,30.03,29.56,11,3,21,0.00
2013-12-5,34,26,21,25,18,14,90,71,57,30.30,30.02,12,7,25,0.00
2013-12-6,24,21,17,19,15,8,91,79,66,30.63,30.28,10,5,21,0.00
2013-12-7,22,17,11,15,8,-100,75,69,65,30.70,30.37,8,3,14,0.00
2013-12-8,36,26,21,26,22,14,93,84,65,30.37,30.09,3,0,11,0.00
2013-12-9,30,25,21,23,20,15,91,80,68,30.52,30.27,8,3,16,0.00
2013-12-10,38,24,10,19,14,8,90,68,42,30.60,30.40,3,0,9,0.01
2013-12-11,43,30,20,26,22,16,91,73,50,30.68,30.39,8,2,15,0.04
2013-12-12,44,31,18,29,24,16,92,74,54,30.69,30.35,3,0,10,0.01
2013-12-13,44,38,35,40,35,29,98,89,75,30.35,29.84,3,1,11,0.36
2013-12-14,42,35,26,40,29,-100,98,82,62,30.38,29.86,10,3,19,0.02
2013-12-15,59,38,21,34,26,20,96,70,30,30.40,30.26,3,0,9,0.00
2013-12-16,66,44,27,38,32,25,93,67,32,30.27,30.16,3,0,7,0.00
2013-12-17,72,48,27,38,31,25,96,59,21,30.34,30.23,6,1,12,0.00
2013-12-18,69,50,31,47,36,27,87,62,30,30.31,29.99,7,2,14,0.00
2013-12-19,68,59,52,56,52,46,87,78,64,29.98,29.72,9,4,20,0.00
2013-12-20,62,42,30,59,39,28,96,91,84,29.94,29.73,8,3,16,0.10
2013-12-21,37,33,30,36,31,-100,98,94,91,29.88,29.64,6,1,15,1.80
2013-12-22,36,30,24,32,25,20,93,79,65,30.48,29.89,7,3,17,0.01
2013-12-23,40,26,16,27,22,15,96,84,56,30.67,30.47,7,1,13,0.00
2013-12-24,49,33,20,33,26,18,93,78,51,30.66,30.29,5,1,15,0.00
2013-12-25,42,35,25,33,30,23,96,83,70,30.50,30.32,5,1,12,0.00
2013-12-26,54,35,20,34,26,19,97,73,36,30.52,30.39,2,0,6,0.00
2013-12-27,58,37,21,33,26,19,95,69,28,30.51,30.38,3,0,6,0.00
2013-12-28,60,44,28,41,33,-100,95,72,49,30.38,29.99,4,1,11,0.00
2013-12-29,43,32,26,40,26,15,96,79,62,30.38,29.98,12,4,29,0.00
2013-12-30,40,27,17,20,14,9,82,60,38,30.49,30.35,3,0,8,0.00
2013-12-31,54,35,18,27,22,15,90,63,33,30.50,30.24,4,1,12,0.00
2014-1-1,66,43,26,40,30,17,87,63,35,30.31,29.89,10,3,22,0.00
2014-1-2,38,26,18,19,15,11,82,65,41,30.57,30.32,8,2,21,0.00